Tracking 18032 objects as of 26-March-2017
HD Live streaming from Space Station
objects crossing your sky now

OPS 9328 (IDSCS 15)

Track OPS 9328 (IDSCS 15) now!
OPS 9328 (IDSCS 15) is classified as:


NORAD ID: 2655
Int'l Code: 1967-003H
Perigee: 33,674.4 km
Apogee: 34,224.2 km
Inclination: 1.9 °
Period: 1,342.9 minutes
Semi major axis: 40320 km
RCS: 0.3981 m2 (medium)
Launch date: January 18, 1967
Source: United States (US)
Launch site: AIR FORCE EASTERN TEST RANGE (AFETR)
Uplink (MHz):
Downlink (MHz):
Beacon (MHz):
Mode:
Call sign:
Status:

Your satellite tracking list
Your tracking list is empty





NASA's NSSDC Master Catalog

Two Line Element Set (TLE):
1  2655U 67003H   17078.38996578 -.00000121 +00000-0 +00000-0 0  9997
2  2655 001.9453 051.2756 0068186 327.0921 172.7519 01.07230311102756
Source of the keplerian elements: AFSPC